Home   Weather   Yaoundé   Past weeks

Flag for Cameroon Past Weather in Yaoundé, Cameroon — Yesterday and Last 2 Weeks

Now
72 °F

Passing clouds.


Feels Like: 65 °F
Forecast: 71 / 84 °F
Wind: 3 mph from Southwest

Location: Yaounde Airport

Current Time: Jan 22, 2017 at 5:01:24 am

Latest Report: Jan 22, 2017 at 4:00 am


Visibility: 5 mi

Pressure: 29.92 "Hg (27.54 "Hg at 717m altitude)

Humidity: 100%

Dew Point: 72 °F

Location of YaoundéLocation

Past Weather in Yaoundé — Graph

°F

Yaoundé Temperature Yesterday

Maximum temperature yesterday: 88 °F (at 2:00 pm)
Minimum temperature yesterday: 70 °F (at 6:00 am)
Average temperature yesterday: 79 °F

High & Low Weather Summary for the Past Weeks

 TemperatureHumidityPressure
High90 °F (Jan 8, 4:00 pm)100% (Jan 7, 6:00 am)30.07 "Hg (Jan 7, 6:00 am)
Low68 °F (Jan 8, 7:00 am)26% (Jan 9, 2:00 pm)29.83 "Hg (Jan 14, 3:00 pm)
Average77 °F79%29.96 "Hg
* Reported Jan 7 3:00 am — Jan 22 3:00 am, Yaoundé, Weather by CustomWeather, © 2017

Note: Actual official high and low records may vary slightly from our data, if they occured in-between our weather recording intervals... More about our weather records

Advertising

Yaoundé Weather History for the Previous 24 Hours

Scroll right to see more
 ConditionsComfort  
Time TempWeatherWind HumidityBarometerVisibility
3:00 am
Sun, Jan 22
73 °FPassing clouds.3 mph94%29.95 "Hg5 mi
2:00 am73 °FPassing clouds.5 mph94%29.95 "Hg5 mi
1:00 am73 °FPassing clouds.7 mph94%29.95 "Hg5 mi
12:00 am75 °FPassing clouds.3 mph89%29.98 "Hg5 mi
11:00 pm
Sat, Jan 21
75 °FPassing clouds.5 mph89%29.95 "HgN/A
10:00 pm77 °FPassing clouds.5 mph83%29.98 "Hg6 mi
9:00 pm77 °FPassing clouds.3 mph83%29.98 "Hg4 mi
8:00 pm79 °FPassing clouds.3 mph79%29.95 "Hg4 mi
7:00 pm79 °FPassing clouds.No wind74%29.92 "HgN/A
6:00 pm84 °FScattered clouds.3 mph62%29.89 "HgN/A
5:00 pm86 °FPartly sunny.5 mph59%29.89 "HgN/A
4:00 pm88 °FPartly sunny.3 mph52%29.89 "HgN/A
3:00 pm88 °FPartly sunny.6 mph52%29.89 "HgN/A
2:00 pm88 °FPartly sunny.3 mph52%29.92 "HgN/A
1:00 pm86 °FPartly sunny.2 mph55%29.95 "Hg5 mi
12:00 pm82 °FPartly sunny.5 mph66%29.98 "Hg5 mi
11:00 am82 °FPartly sunny.2 mph66%30.01 "Hg5 mi
10:00 am79 °FPartly sunny.5 mph74%30.01 "Hg4 mi
9:00 am75 °FPartly sunny.5 mph83%30.01 "Hg4 mi
8:00 am73 °FPartly sunny.2 mph89%30.01 "Hg4 mi
7:00 am72 °FPartly sunny.2 mph94%29.98 "Hg4 mi
6:00 am70 °FPassing clouds.2 mph100%29.98 "Hg4 mi
5:00 am72 °FPassing clouds.6 mph94%29.95 "Hg5 mi
Weather by CustomWeather, © 2017

See weather overviewHow to use our weather pages